Regional Weather Roundup
Issued by NWS

Home | Current Version | Previous Version | Graphics & Text | Print | Product List | Glossary Off
Versions: 1 2 3 4 5 6 7 8 9 10 11 12 13 14 15 16 17 18 19 20 21 22 23 24 25 26 27 28 29 30 31 32 33 34 35 36 37 38 39 40 41 42 43 44 45 46 47 48 49 50

000
ASUS43 KMKX 240911
RWRWI

WISCONSIN REGIONAL WEATHER ROUNDUP
NATIONAL WEATHER SERVICE MILWAUKEE/SULLIVAN WI
400 AM CDT FRI OCT 24 2014

NOTE: "FAIR" INDICATES FEW OR NO CLOUDS BELOW 12,000 FEET WITH NO
SIGNIFICANT WEATHER AND/OR OBSTRUCTIONS TO VISIBILITY.

WIZ001-002-006>008-014>016-023>028-241000-
NORTHWEST WISCONSIN

CITY           SKY/WX    TMP DP  RH WIND       PRES   REMARKS
SUPERIOR ARPT  FOG       37  37 100 CALM      29.91F VSB 1/4
ASHLAND        MOCLDY    44  44 100 SW3       29.95S FOG
HAYWARD        CLOUDY    49  47  93 S7        29.97S FOG
SIREN          MOCLDY    48  47  97 SE6       29.94F FOG
CUMBERLAND     CLOUDY    46  46 100 S5        29.97F FOG
RICE LAKE      CLOUDY    50  48  95 SE6       29.99F FOG
CHETEK         CLOUDY    49  49  99 S3        29.99S FOG
LADYSMITH      FOG       48  47  97 S5        30.01S VSB 3/4
EAU CLAIRE     CLOUDY    49  48  97 S5        30.00R FOG
MENOMONIE      CLOUDY    51  50  98 S6        30.00R FOG
NEW RICHMOND   CLOUDY    48  48 100 SE8       29.97S FOG
OSCEOLA        CLOUDY    48  48 100 E5        29.98F FOG
$$

WIZ003>005-009-010-017-018-241000-
NORTH CENTRAL WISCONSIN

CITY           SKY/WX    TMP DP  RH WIND       PRES   REMARKS
MANITOWISH WTR CLOUDY    45  45 100 SW6       29.98S FOG
ARBOR VITAE    FOG       45  44  97 SW5       29.98F VSB 1
WOODRUFF       FOG       45  44  97 SW5       29.98F VSB 1
RHINELANDER    FOG       44  44 100 SW5       29.99F VSB 1/4
EAGLE RIVER    FOG       44  44 100 SW6       29.98S VSB 1/2
LAND O LAKES   FOG       44  44 100 SW5       29.98F VSB 1/2
PHILLIPS       CLOUDY    46  46 100 SW7       29.99R FOG
TOMAHAWK       FOG       44  43  97 CALM      30.00S VSB 1/2
MEDFORD        FOG       44  44 100 SW3       30.01R VSB 1/4
MERRILL        FOG       45  45 100 W5        30.00F VSB 3/4
$$

WIZ029-030-035-036-043>047-241000-
CENTRAL WISCONSIN

CITY           SKY/WX    TMP DP  RH WIND       PRES   REMARKS
WAUSAU         CLOUDY    46  45  96 CALM      29.99F FOG
MOSINEE        FOG       45  45 100 SW5       30.01F VSB 1
MARSHFIELD     FOG       46  45  96 SW5       30.01F VSB 1/4
STEVENS POINT  CLOUDY    45  45  99 SW3       30.01F FOG
WAUPACA        CLOUDY    49  48  97 CALM      30.03S FOG
WAUTOMA        CLOUDY    48  48 100 SW5       30.03F FOG
WISC RAPIDS    CLOUDY    47  46  97 SW8       30.03F FOG
CAMP DOUGLAS   CLOUDY    46  46 100 W3        30.03S FOG
$$

WIZ011>013-019>022-031-037>040-048>050-241000-
NORTHEAST WISCONSIN

CITY           SKY/WX    TMP DP  RH WIND       PRES   REMARKS
ANTIGO         FOG       43  43 100 NW3       29.99F VSB 1/4
SHAWANO        CLOUDY    48  47  94 SW3       30.02F FOG
OCONTO         CLOUDY    47  47 100 W5        30.01S
STURGEON BAY   CLOUDY    48  45  87 W5        30.01F
GREEN BAY      CLOUDY    48  47  96 W6        30.02S FOG
MANITOWOC      CLOUDY    49  48  97 W3        30.02F FOG
APPLETON       CLOUDY    46  45  93 W5        30.03S FOG
CLINTONVILLE   CLOUDY    46  45  93 CALM      30.02S FOG
OSHKOSH        CLOUDY    48  47  96 CALM      30.03S FOG
$$

WIZ032>034-041-042-053>061-241000-
SOUTHWEST WISCONSIN

CITY           SKY/WX    TMP DP  RH WIND       PRES   REMARKS
LA CROSSE      FOG       51  50  96 SE7       30.01F VSB 1
SPARTA         FOG       47  47  99 CALM      30.04S VSB 1
VIROQUA        CLOUDY    48  48 100 CALM      30.02F VSB 1/4
BOSCOBEL       FOG       51  49  92 CALM      30.04F VSB 1/2
PRAIRIE DU CHI FOG       50  49  96 E5        30.02F VSB 3/4
PLATTEVILLE    CLOUDY    50  49  98 W3        30.05F VSB 1/2
$$

WIZ056-057-062-063-064-067-068-241000-
SOUTH CENTRAL WISCONSIN

CITY           SKY/WX    TMP DP  RH WIND       PRES   REMARKS
REEDSBURG      FOG       46  46 100 SW3       30.03F VSB 1/2
BARABOO/DELLS  FOG       47  46  96 CALM      30.03F VSB 1/4
LONE ROCK      FOG       52  48  86 W5        30.04F VSB 1
MINERAL POINT  FOG       50  48  93 W5        30.04F VSB 1/4
MADISON        CLOUDY    49  47  93 W6        30.04S FOG
MIDDLETON      CLOUDY    50  50  99 W7        30.05S VSB 1
WATERTOWN      CLOUDY    49  49 100 W5        30.04R FOG
MONROE         CLOUDY    48  48 100 W9        30.05S FOG
JANESVILLE     CLOUDY    52  50  93 NW5       30.04R FOG
$$

WIZ051-052-058>065-066-070>072-241000-
SOUTHEAST WISCONSIN

CITY           SKY/WX    TMP DP  RH WIND       PRES   REMARKS
MILWAUKEE      CLOUDY    51  49  92 W6        30.04R
WAUKESHA       CLOUDY    46  46 100 W8        30.04S FOG
MILWAUKEE/TIMM CLOUDY    50  46  87 NW5       30.04S FOG
RACINE         CLOUDY    53  48  83 W6        30.06R
BURLINGTON     CLOUDY    47  47  99 CALM      30.04S FOG
KENOSHA        CLOUDY    48  47  96 CALM      30.04S FOG
FOND DU LAC    CLOUDY    48  46  93 CALM      30.03S FOG
SHEBOYGAN      CLOUDY    49  48  97 W5        30.03S FOG
WEST BEND      CLOUDY    48  46  93 NW3       30.03S FOG
JUNEAU         CLOUDY    47  47  99 W5        30.05S FOG
$$

LSZ147-162-241000-
LAKE SUPERIOR

STATION/POSITION TIME  TEMP    WIND        PRES    WAVE
                       AIR SEA DIR/SP/G            HT/PER
                 (UTC) (F)     (DEG/KT/KT) (MB)    (FT/S)
W MID LAKE BUOY  0850   47 46  210/ 10/ 12 1013.8F   1/ 3
DEVILS ISLAND    0900   48     210/  5/  6 1013.9F
PORT WING        0800   49     210/  3/  5 1013.9S
SAXON HARBOR     0800   50     200/  6/  9 1013.5F
$$

LMZ867-665-643>646-241000-
LAKE MICHIGAN

STATION/POSITION TIME  TEMP    WIND        PRES    WAVE
                       AIR SEA DIR/SP/G            HT/PER
                 (UTC) (F)     (DEG/KT/KT) (MB)    (FT/S)
CHAMBERS ISLAND  0800   49     210/  5/  7 1016.3S
N MID LAKE BUOY  0850   51 51  260/  8/ 10 1016.2F   3/ 5
NORTHPORT PIER   0800   50     260/  1/  4 1016.3R
SISTER BAY       0813             CALM       N/A
ALGOMA LAKESHORE 0711          290/  1/  4   N/A
KEWAUNEE LAKESHO 0800   50     250/  2/  4 1015.6R
SHEBOYGAN LAKESH 0900   51 51  300/  3/  4 1017.3S
PORT WASHINGTON  0840   52     280/  3/  5 1017.6S
ATWATER BUOY     0900   52     290/  4/  6 1018.0S
MILWAUKEE LAKESH 0800   52     280/  9/ 12   N/A
S MID LAKE BUOY  0850   55 54  210/ 10/ 12 1017.3F   1/ 3
KENOSHA   LAKESH 0900   50     280/  2/  5 1017.3R
$$

TC  - TEMPERATURE IN CELSIUS
VSB - VISIBILITY IN STATUTE MILES
WCI - WIND CHILL INDEX
HX  - HEAT INDEX




USA.gov is the U.S. government's official web portal to all federal, state and local government web resources and services.